Total_Precipitation_Accumulation
0.38 0.33 0.30 0.32 0.30 0.27 0.25 0.29 0.35 0.38 0.39 0.46 0.57 0.67 0.77 0.95 1.15 1.21 1.28 1.42 1.44 1.44 1.57 1.69 1.73 1.66 1.58 1.64 1.81 2.17 2.06 1.70 1.54 1.59 1.45 1.29 1.26 1.35 1.33 1.44 1.53 1.44 1.37
0.29 0.24 0.25 0.26 0.23 0.21 0.20 0.24 0.33 0.42 0.47 0.52 0.66 0.80 1.03 1.14 1.29 1.44 1.43 1.45 1.51 1.54 1.61 1.83 1.96 1.88 1.87 1.97 2.01 2.25 2.40 2.12 1.92 1.94 2.11 1.87 1.65 1.31 1.08 1.18 1.29 1.33 1.38
0.27 0.19 0.19 0.22 0.20 0.18 0.20 0.25 0.38 0.59 0.78 0.86 1.08 1.35 1.61 1.68 1.62 1.62 1.67 1.65 1.67 1.74 1.71 1.83 2.03 2.01 1.97 2.03 2.22 2.52 2.81 2.72 2.44 2.25 2.42 2.18 1.90 1.72 1.22 1.00 1.06 1.19 1.34
0.33 0.24 0.23 0.22 0.20 0.22 0.30 0.47 0.69 0.99 1.23 1.37 1.55 1.76 1.87 1.91 1.84 1.85 1.84 1.82 1.73 1.66 1.66 1.79 2.00 2.14 2.23 2.30 2.37 2.37 2.72 2.96 2.79 2.63 2.33 2.04 1.88 1.99 1.76 1.29 1.04 1.11 1.18
0.36 0.33 0.34 0.35 0.39 0.48 0.67 0.96 1.21 1.44 1.60 1.65 1.73 1.91 2.06 2.22 2.24 2.13 1.98 1.86 1.83 1.76 1.67 1.73 1.80 1.84 1.94 2.07 2.19 2.27 2.50 2.68 2.82 2.78 2.58 2.31 2.15 1.73 1.72 1.75 1.48 1.21 1.00
0.42 0.48 0.60 0.71 0.82 0.91 1.08 1.29 1.43 1.57 1.57 1.57 1.62 1.75 1.93 2.09 2.12 2.14 2.12 1.98 1.85 1.74 1.64 1.59 1.67 1.69 1.70 1.85 1.96 2.07 2.31 2.49 2.60 2.66 2.56 2.45 2.40 2.14 1.89 1.71 1.68 1.52 1.20
0.51 0.69 0.84 0.97 1.09 1.18 1.27 1.30 1.30 1.34 1.36 1.37 1.41 1.47 1.54 1.58 1.64 1.75 1.68 1.55 1.44 1.38 1.37 1.28 1.33 1.46 1.52 1.70 1.78 1.72 1.78 1.97 2.19 2.36 2.38 2.37 2.28 2.24 2.18 2.02 1.85 1.63 1.28
0.76 0.88 0.98 1.07 1.11 1.23 1.28 1.23 1.20 1.19 1.12 1.06 1.11 1.12 1.16 1.21 1.23 1.25 1.21 1.13 1.09 1.06 1.03 1.02 1.02 1.09 1.17 1.39 1.61 1.59 1.60 1.67 1.78 1.86 2.10 2.21 2.16 2.19 2.01 1.90 1.94 1.74 1.47
1.02 1.19 1.19 1.09 1.00 1.05 1.12 1.09 1.05 1.00 0.91 0.85 0.88 0.91 0.96 0.98 0.96 0.94 0.88 0.87 0.81 0.81 0.79 0.82 0.90 0.96 0.95 1.04 1.18 1.37 1.44 1.51 1.59 1.61 1.77 1.88 1.95 1.92 1.77 1.80 1.88 1.77 1.51
1.10 1.37 1.50 1.37 1.10 0.92 0.95 0.90 0.87 0.89 0.87 0.82 0.84 0.84 0.76 0.69 0.68 0.71 0.65 0.64 0.69 0.72 0.72 0.69 0.71 0.78 0.80 0.88 0.99 1.05 1.16 1.24 1.40 1.57 1.70 1.73 1.77 1.80 1.70 1.69 1.83 1.81 1.59
1.30 1.43 1.47 1.34 1.16 0.88 0.81 0.79 0.76 0.78 0.84 0.77 0.79 0.80 0.68 0.55 0.50 0.49 0.47 0.46 0.50 0.57 0.57 0.59 0.66 0.67 0.69 0.70 0.72 0.77 0.83 0.90 1.00 1.07 1.21 1.42 1.61 1.67 1.66 1.72 1.78 1.83 1.69
0.97 0.98 1.08 1.09 1.01 0.88 0.80 0.85 0.89 0.89 0.81 0.73 0.71 0.69 0.60 0.51 0.49 0.45 0.41 0.42 0.47 0.50 0.50 0.55 0.59 0.58 0.64 0.67 0.67 0.67 0.69 0.79 0.88 0.88 0.89 1.00 1.23 1.40 1.53 1.61 1.63 1.71 1.70
0.71 0.64 0.74 0.89 0.82 0.76 0.79 0.87 1.01 1.01 0.93 0.80 0.71 0.68 0.62 0.59 0.54 0.47 0.44 0.43 0.50 0.61 0.64 0.63 0.66 0.63 0.65 0.64 0.66 0.69 0.71 0.73 0.79 0.82 0.83 0.90 1.00 1.17 1.26 1.36 1.47 1.56 1.68
0.55 0.49 0.49 0.53 0.52 0.53 0.56 0.69 0.96 1.14 1.11 1.00 0.85 0.75 0.69 0.64 0.56 0.50 0.48 0.45 0.48 0.54 0.57 0.65 0.72 0.80 0.85 0.83 0.79 0.78 0.77 0.72 0.73 0.79 0.87 0.89 0.90 1.03 1.24 1.36 1.44 1.47 1.58
0.36 0.31 0.30 0.31 0.33 0.37 0.44 0.54 0.82 1.03 1.04 1.02 0.88 0.74 0.63 0.55 0.52 0.54 0.55 0.50 0.45 0.46 0.47 0.56 0.65 0.74 0.83 0.88 0.89 0.75 0.64 0.65 0.69 0.70 0.71 0.79 0.86 0.89 1.04 1.20 1.44 1.46 1.58
0.30 0.29 0.26 0.24 0.21 0.21 0.27 0.35 0.54 0.71 0.79 0.85 0.80 0.64 0.57 0.51 0.45 0.47 0.53 0.54 0.44 0.42 0.44 0.47 0.45 0.48 0.52 0.70 0.71 0.59 0.49 0.53 0.62 0.69 0.71 0.71 0.73 0.75 0.80 0.83 1.08 1.28 1.40
0.33 0.35 0.33 0.30 0.26 0.23 0.23 0.25 0.31 0.41 0.49 0.54 0.55 0.45 0.42 0.50 0.49 0.49 0.49 0.44 0.37 0.39 0.41 0.35 0.31 0.33 0.37 0.43 0.42 0.48 0.49 0.50 0.54 0.63 0.72 0.77 0.75 0.80 0.89 0.86 0.89 0.98 1.05
0.35 0.32 0.30 0.27 0.25 0.22 0.21 0.22 0.22 0.25 0.29 0.28 0.26 0.22 0.29 0.40 0.40 0.36 0.33 0.30 0.30 0.35 0.42 0.36 0.33 0.37 0.35 0.37 0.41 0.45 0.46 0.59 0.65 0.64 0.64 0.75 0.82 0.89 1.05 1.03 1.08 1.01 0.91
0.16 0.14 0.12 0.11 0.11 0.11 0.11 0.11 0.08 0.09 0.10 0.10 0.10 0.11 0.12 0.13 0.13 0.12 0.14 0.19 0.25 0.30 0.27 0.31 0.45 0.45 0.42 0.50 0.47 0.40 0.46 0.59 0.66 0.61 0.64 0.76 0.86 1.03 1.14 1.16 1.17 1.07 0.97
0.04 0.06 0.08 0.09 0.08 0.08 0.08 0.07 0.07 0.07 0.07 0.08 0.09 0.09 0.09 0.09 0.08 0.08 0.09 0.12 0.16 0.21 0.23 0.26 0.39 0.46 0.49 0.50 0.38 0.35 0.46 0.59 0.67 0.67 0.67 0.89 0.90 0.98 1.03 1.08 1.20 1.22 1.09
0.04 0.06 0.07 0.07 0.08 0.07 0.07 0.07 0.06 0.08 0.11 0.11 0.10 0.08 0.08 0.09 0.12 0.14 0.12 0.13 0.13 0.13 0.17 0.23 0.27 0.28 0.29 0.29 0.29 0.32 0.37 0.46 0.57 0.64 0.67 0.65 0.77 0.79 0.89 1.00 1.08 1.29 1.17
0.05 0.07 0.07 0.07 0.08 0.08 0.08 0.08 0.07 0.09 0.12 0.12 0.11 0.10 0.11 0.11 0.12 0.18 0.19 0.18 0.18 0.15 0.16 0.21 0.27 0.26 0.22 0.19 0.21 0.23 0.27 0.35 0.41 0.48 0.59 0.58 0.66 0.70 0.77 0.79 0.96 1.14 1.10
0.05 0.07 0.08 0.09 0.09 0.09 0.10 0.10 0.10 0.12 0.13 0.13 0.12 0.12 0.13 0.14 0.14 0.15 0.17 0.20 0.20 0.20 0.20 0.21 0.23 0.24 0.25 0.23 0.25 0.26 0.29 0.32 0.31 0.33 0.48 0.55 0.62 0.60 0.59 0.71 0.90 0.96 1.00
0.05 0.05 0.06 0.09 0.12 0.14 0.14 0.15 0.16 0.17 0.17 0.16 0.15 0.14 0.15 0.17 0.17 0.18 0.20 0.22 0.25 0.25 0.24 0.24 0.26 0.28 0.28 0.24 0.24 0.28 0.32 0.32 0.30 0.32 0.46 0.58 0.64 0.62 0.60 0.67 0.80 0.85 0.98
0.08 0.06 0.06 0.07 0.10 0.13 0.15 0.17 0.18 0.20 0.21 0.21 0.21 0.20 0.20 0.21 0.22 0.23 0.24 0.23 0.25 0.28 0.27 0.28 0.30 0.29 0.27 0.25 0.27 0.30 0.33 0.34 0.34 0.42 0.58 0.71 0.72 0.72 0.69 0.73 0.82 0.80 0.77
0.07 0.07 0.07 0.07 0.07 0.08 0.09 0.11 0.13 0.16 0.19 0.23 0.23 0.21 0.24 0.26 0.26 0.25 0.22 0.23 0.24 0.28 0.27 0.26 0.28 0.29 0.26 0.25 0.28 0.33 0.36 0.35 0.44 0.60 0.77 0.89 0.97 0.97 0.90 0.86 0.84 0.77 0.74